COSMOS 2432 (GLONASS)

Satellite information

Favourite Embed

Satellite Type and Status

PAYLOADIN ORBIT

Key statistics

Satellite COSMOS 2432 (GLONASS) at a glance.

Uptime

6409

Days in orbit

Revolutions

≈ 2.1

Per day

Orbit

MEO

Medium Earth Orbit

Inclination

65.8

Latest

Satellite identification and parameters

Extended collection of information and parameters for COSMOS 2432 (GLONASS).

Object identification

Identified? True

Debris? False

Object name: COSMOS 2432 (GLONASS)

International designator: 2007-052B

Object number (NORAD): 32276

Object ID (CCSDS): 32276

Country: COMMONWEALTH OF INDEPENDENT STATES (CIS)

Current information (Y/N): Y

RCS size: LARGE

Orbital parameters

Period: 675.728 minutes

Inclination: 65.8088 deg

SMA: 25507.917 km

Apoapsis: 19152.808 km

Periapsis: 19106.757 km

RAAN: 329.5104 deg

Eccentricy: 0.0009027

Argument of periapsis: 337.6841 deg

Mean anomaly: 158.9571 deg

Mean motion: 2.1310334 rev/day

Mean motion (dot): -0.00000046 rev/day2

B* drag term: 0.0 1/REarth

Two-line elements (TLE)

Creation date: May 12, 2025, 7:41 p.m.

Reference frame: TEME

Reference center: EARTH

Epoch: May 12, 2025, 10:02 a.m. UTC

TLE line 0: 0 COSMOS 2432 (GLONASS)

TLE line 1: 1 32276U 07052B 25132.41874891 -.00000046 00000-0 00000-0 0 9990

TLE line 2: 2 32276 65.8088 329.5104 0009027 337.6841 158.9571 2.13103340136543

Live tracking on map

Real-time ground track for satellite COSMOS 2432 (GLONASS).

In-orbit conjunctions

There are no conjunctions computed for COSMOS 2432 (GLONASS), at the moment. Check back to stay up to date, as we update our databases every day.

Go to all conjunctions

Associated space launch

GLONASS navigation satellites

COSMOS 2432 (GLONASS) was lifted into orbit during the mission ‘Proton | Uragan-M 9 to 11’, on board a Proton space rocket.

The launch took place on Oct. 26, 2007, 7:35 a.m. from 81/24 (81P).

For more information about the launch, click the button.

Launch to space Proton | Uragan-M 9 to 11
Proton | Uragan-M 9 to 11

Agency: N/A

Status: Launch Successful

Launch date: Oct. 26, 2007, 7:35 a.m. UTC

Rocket: Proton

Launch pad: 81/24 (81P)

Location: Baikonur Cosmodrome, Republic of Kazakhstan

...

Latest news about this satellite

There are no fresh news available about this satellite. Check back as we update our databases every day.


Newsletter sign-up

Weekly statistics, charts and insights to help you stay on top of the space industry.